[[{"header":{"parameterUnit":"m.s-1","parameterCategory":1,"la1":30.2991,"la2":30.254,"lo1":-89.0895,"lo2":-89.0444,"dy":0.0017,"dx":0.0017,"nx":28,"ny":28,"refTime":"2025-09-15T09:00:00:Z","depth":0,"parameterNumber":2,"parameterNumberName":"U-component_of_WINDS"},"data":[0,0,0,0,0,0,0,0,0,0,0,0,0,0,0,0,0,0,0,0,0,0,0,0,0,0,0,0,0,0,0,0,0,0,0,0,0,0,0,0,0,0,0,0,0,0,0,0,0,0,0,0,0,0,0,0,0,0,0.0119,0.0119,0,0.0106,0.0106,0.0106,0.0109,0.0109,0.0109,0.011,0.0095,0.0095,0.0094,0,0,0,0,0,0,0,0,0,0,0,0,0,0.0145,0.0145,0.0119,0.0119,0.0119,0.0106,0.0106,0.0106,0.0109,0.0109,0.0109,0.011,0.0096,0.0095,0.0094,0,0,0,0,0,0,0,0,0,0,0,0,0,0.0133,0.0145,0.0119,0.0119,0.0119,0.0106,0.0106,0.0106,0.0109,0.0109,0.0109,0.011,0.0096,0.0095,0.0094,0.0081,0,0,0.0091,0.0091,0,0,0,0,0,0,0,0,0.0134,0.0132,0.0119,0.0119,0.0119,0.011,0.011,0.0097,0.0109,0.0112,0.011,0.011,0.01,0.0099,0.0095,0.008,0.008,0.0091,0.0091,0.009,0.009,0,0,0,0,0,0,0,0.0135,0.0133,0.0114,0.0119,0.0119,0.0119,0.0118,0.0108,0.0104,0.0112,0.0112,0.0111,0.01,0.0096,0.0095,0.0079,0.0091,0.009,0.009,0.0089,0.0051,0.0051,0,0,0,0,0,0,0.0136,0.0134,0.0115,0.0114,0.0127,0.0118,0.0117,0.0112,0.0104,0.0103,0.011,0.0111,0.0097,0.0096,0.0094,0.0077,0.009,0.0089,0.0089,0.0052,0.0051,0.0051,0,0,0,0,0,0,0.0137,0.0134,0.0115,0.0124,0.0121,0.0117,0.0112,0.0112,0.0108,0.0103,0.0102,0.0108,0.0098,0.0096,0.0084,0.0077,0.0089,0.0088,0.0052,0.0052,0.0051,0.0044,0,0,0,0,0,0,0.0137,0.0134,0.013,0.0124,0.0121,0.0105,0.0112,0.0111,0.0107,0.0107,0.01,0.0099,0.0098,0.0085,0.0083,0.0076,0.0087,0.0053,0.0052,0.0051,0.0045,0.0043,0.0042,0,0,0,0,0,0.0138,0.0129,0.013,0.0127,0.0115,0.0105,0.0103,0.0102,0.0106,0.0101,0.0098,0.0099,0.0078,0.0084,0.0082,0.0074,0.0053,0.0052,0.0051,0.0045,0.0043,0.0042,0,0,0,0,0,0,0.0134,0.0128,0.0129,0.0117,0.0112,0.0105,0.0099,0.01,0.0093,0.0094,0.0092,0.0091,0.0078,0.0075,0.0082,0.006,0.0066,0.0065,0.0063,0.0061,0.0059,0.006,0.0087,0,0,0,0,0,0.0132,0.0125,0.0119,0.011,0.0107,0.0103,0.0099,0.0098,0.0092,0.009,0.0086,0.008,0.0071,0.0066,0.0058,0.0045,0.0042,0.0038,0.0036,0.0035,0.0034,0.0024,0.0022,0.0047,0.0047,0.0047,0,0,0.0127,0.0123,0.0119,0.0109,0.0104,0.0096,0.0101,0.0093,0.0086,0.0089,0.0077,0.0074,0.0066,0.0053,0.0047,0.005,0.0026,0.0034,0.0033,0.0032,0.0023,0.0021,0.0018,0.0047,0.0047,0.0047,0,0,0.0115,0.0111,0.0102,0.0097,0.009,0.0088,0.0085,0.0079,0.0077,0.0065,0.0066,0.0058,0.0045,0.0039,0.0034,0.0018,0.0019,0.0015,0.0007,-0.0002,-0.0004,-0.0006,-0.0013,-0.0015,0.0014,0.0014,0.0014,0,0.011,0.0098,0.0097,0.0087,0.0082,0.0084,0.0074,0.0069,0.006,0.0056,0.006,0.0042,0.0037,0.0022,0.0018,0.0015,0.0011,0.0016,-0.0003,-0.0005,-0.0007,-0.0014,-0.0017,0.0014,0.0014,0.0014,0.0014,0,0.0091,0.0082,0.0076,0.0067,0.0061,0.0051,0.0048,0.0043,0.0042,0.0039,0.0026,0.0021,0.0011,0.0008,0.0008,-0.0008,-0.0006,-0.0003,0.0003,-0.001,-0.0017,-0.0019,0.0013,0.0013,0.0013,0.0013,0,0,0.0076,0.0065,0.0063,0.0058,0.005,0.0043,0.0033,0.0024,0.0018,0.0012,0.0002,-0.001,-0.0008,-0.0013,-0.0014,-0.0021,-0.0036,-0.0018,-0.0018,-0.0022,-0.0055,-0.0059,-0.0061,-0.0035,-0.0036,-0.0036,-0.0055,0,0.0061,0.0044,0.0042,0.0026,0.0017,0.0018,0.0009,0.0003,-0.0,-0.0009,-0.0012,-0.0022,-0.0017,-0.0021,-0.0028,-0.0033,-0.0043,-0.0031,-0.0045,-0.0045,-0.0044,-0.0065,-0.0068,-0.0086,-0.0058,-0.0058,-0.0058,0,0.0042,0.0034,0.0017,0.0009,0.0005,-0.0003,-0.0012,-0.002,-0.0027,-0.0029,-0.0036,-0.0036,-0.0047,-0.0041,-0.0057,-0.0049,-0.0055,-0.0058,-0.0059,-0.0061,-0.0053,-0.0069,-0.0091,-0.0094,-0.0062,-0.0062,-0.0062,0,0.0031,0.0016,0.0004,-0.0,-0.001,-0.0015,-0.002,-0.0027,-0.0033,-0.0041,-0.0046,-0.0055,-0.0061,-0.0069,-0.0072,-0.0066,-0.0089,-0.0082,-0.0092,-0.0092,-0.0097,-0.0097,-0.0122,-0.0099,-0.0099,-0.0099,-0.0099,0,0.0014,0.0003,-0.0002,-0.0009,-0.0022,-0.0024,-0.0036,-0.004,-0.0047,-0.0056,-0.0056,-0.0065,-0.0068,-0.0078,-0.008,-0.0094,-0.0097,-0.0099,-0.01,-0.01,-0.01,-0.0105,-0.0104,-0.01,-0.0099,-0.0099,-0.0099,0,-0.0001,-0.0004,-0.0018,-0.0026,-0.0028,-0.0037,-0.0045,-0.0053,-0.0056,-0.0068,-0.0071,-0.0076,-0.0088,-0.0092,-0.0105,-0.0107,-0.0124,-0.0123,-0.0122,-0.0122,-0.0133,-0.0132,-0.0163,-0.0168,-0.014,-0.014,-0.014,0,-0.0012,-0.002,-0.0029,-0.0035,-0.004,-0.005,-0.0056,-0.0059,-0.0066,-0.0076,-0.0083,-0.0094,-0.0104,-0.0122,-0.0128,-0.0139,-0.0139,-0.0149,-0.0141,-0.0141,-0.0141,-0.0141,-0.0143,-0.0151,-0.0151,-0.0151,-0.0152,0,-0.0031,-0.0033,-0.0042,-0.0052,-0.0059,-0.0068,-0.0075,-0.0081,-0.0085,-0.0093,-0.0104,-0.0112,-0.0126,-0.0138,-0.015,-0.0155,-0.0155,-0.0154,-0.0157,-0.0158,-0.0157,-0.0159,-0.0128,-0.0154,-0.0153,-0.0153,-0.0153,-0.0153,-0.0045,-0.0053,-0.0061,-0.0072,-0.0078,-0.0086,-0.0094,-0.0099,-0.0109,-0.0121,-0.0122,-0.0135,-0.0144,-0.016,-0.0165,-0.0176,-0.0174,-0.0178,-0.0179,-0.0181,-0.0182,-0.0155,-0.0178,-0.0178,-0.0178,-0.0178,-0.0178,0,-0.0065,-0.0071,-0.008,-0.0092,-0.0101,-0.0099,-0.0108,-0.0116,-0.0128,-0.0136,-0.0145,-0.016,-0.0172,-0.0179,-0.0191,-0.0198,-0.0199,-0.0202,-0.0202,-0.0203,-0.0183,-0.018,-0.0201,-0.0201,-0.0201,-0.0201,-0.0201,-0.0201,-0.0077,-0.0091,-0.0094,-0.0112,-0.0117,-0.013,-0.0136,-0.0143,-0.015,-0.0166,-0.0176,-0.0181,-0.0189,-0.0202,-0.0213,-0.0215,-0.022,-0.0224,-0.0226,-0.0207,-0.0204,-0.0202,-0.0199,-0.0224,-0.0224,-0.0245,-0.0245,-0.0245]},{"header":{"parameterUnit":"m.s-1","parameterCategory":1,"la1":30.2991,"la2":30.254,"lo1":-89.0895,"lo2":-89.0444,"dy":0.0017,"dx":0.0017,"nx":28,"ny":28,"refTime":"2025-09-15T09:00:00:Z","depth":0,"parameterNumber":3,"parameterNumberName":"V-component_of_WINDS"},"data":[0,0,0,0,0,0,0,0,0,0,0,0,0,0,0,0,0,0,0,0,0,0,0,0,0,0,0,0,0,0,0,0,0,0,0,0,0,0,0,0,0,0,0,0,0,0,0,0,0,0,0,0,0,0,0,0,0,0,2.1989,2.1989,0,2.1991,2.1991,2.1991,2.1949,2.1948,2.1947,2.1946,2.1947,2.1948,2.1949,0,0,0,0,0,0,0,0,0,0,0,0,0,2.1946,2.1947,2.1989,2.1989,2.1989,2.1991,2.1991,2.1991,2.1949,2.1948,2.1947,2.1945,2.1947,2.1948,2.1949,0,0,0,0,0,0,0,0,0,0,0,0,0,2.1958,2.1947,2.1989,2.1968,2.1967,2.1991,2.1991,2.1991,2.195,2.1948,2.1946,2.1945,2.1946,2.1948,2.195,2.1994,0,0,2.1955,2.1955,0,0,0,0,0,0,0,0,2.1957,2.196,2.1971,2.197,2.1968,2.1968,2.1977,2.1992,2.195,2.1956,2.1946,2.1944,2.1955,2.1956,2.196,2.1994,2.1994,2.1955,2.1956,2.1957,2.1957,0,0,0,0,0,0,0,2.1957,2.1959,2.199,2.1972,2.1969,2.1958,2.1958,2.1979,2.1965,2.1955,2.1952,2.1953,2.1954,2.1959,2.196,2.1994,2.1955,2.1956,2.1957,2.1958,2.2061,2.2063,0,0,0,0,0,0,2.1959,2.1959,2.199,2.199,2.1958,2.196,2.196,2.197,2.1965,2.1963,2.1955,2.1951,2.1957,2.1958,2.196,2.201,2.1957,2.1958,2.1959,2.206,2.2062,2.2064,0,0,0,0,0,0,2.1958,2.1962,2.199,2.1974,2.1976,2.1963,2.1974,2.1971,2.1975,2.1964,2.1961,2.1962,2.1956,2.1958,2.1985,2.2009,2.1959,2.196,2.2057,2.206,2.2063,2.211,0,0,0,0,0,0,2.1957,2.1962,2.1979,2.1974,2.1977,2.2016,2.1976,2.1972,2.1978,2.1974,2.1971,2.1969,2.1954,2.1983,2.1987,2.201,2.1962,2.2055,2.2059,2.2062,2.2107,2.2114,2.2121,0,0,0,0,0,2.1956,2.1993,2.198,2.1984,2.1999,2.2017,2.2019,2.2002,2.1981,2.1997,2.199,2.1969,2.2006,2.1986,2.199,2.2015,2.2054,2.2058,2.2062,2.2103,2.2113,2.2121,0,0,0,0,0,0,2.2002,2.1992,2.1978,2.2015,2.2017,2.201,2.2031,2.2013,2.2021,2.2017,2.1995,2.1995,2.2025,2.2023,2.2001,2.2056,2.2026,2.2031,2.2056,2.2065,2.2072,2.2072,2.1963,0,0,0,0,0,2.2016,2.2032,2.2023,2.2057,2.2058,2.2045,2.2052,2.2039,2.204,2.2041,2.2035,2.2037,2.2049,2.2057,2.2068,2.2106,2.2104,2.2125,2.2132,2.2138,2.2142,2.216,2.2169,2.2077,2.2077,2.2076,0,0,2.2046,2.2043,2.2055,2.2066,2.2066,2.2082,2.2046,2.2065,2.2076,2.2044,2.2069,2.2065,2.2065,2.2098,2.2112,2.2097,2.2167,2.2143,2.2148,2.2149,2.2165,2.2174,2.2182,2.2079,2.2079,2.2078,0,0,2.2109,2.2109,2.2136,2.2136,2.2137,2.2127,2.2133,2.2129,2.2124,2.2149,2.2124,2.2137,2.2159,2.2159,2.2163,2.2223,2.2203,2.2227,2.2264,2.2282,2.2289,2.2296,2.2316,2.2323,2.2232,2.2232,2.2232,0,2.2146,2.217,2.2152,2.2172,2.2177,2.2148,2.2174,2.2175,2.2179,2.2182,2.2165,2.219,2.2188,2.222,2.2234,2.2238,2.2244,2.2227,2.229,2.2296,2.2302,2.232,2.2328,2.2235,2.2234,2.2234,2.2234,0,2.2215,2.2232,2.2253,2.2257,2.2264,2.2287,2.2271,2.2281,2.2267,2.2258,2.2283,2.228,2.2288,2.2295,2.2282,2.2324,2.2314,2.2294,2.2263,2.2314,2.233,2.2338,2.2239,2.2238,2.2237,2.2236,0,0,2.2307,2.2299,2.2307,2.2307,2.2305,2.2317,2.2338,2.2346,2.2353,2.2357,2.2373,2.2391,2.2372,2.2375,2.2362,2.2377,2.2423,2.2355,2.2355,2.2366,2.2467,2.2481,2.2489,2.241,2.2412,2.2413,2.2466,0,2.2367,2.2402,2.2385,2.2422,2.2436,2.2408,2.2426,2.2426,2.2418,2.2428,2.242,2.2432,2.2407,2.2409,2.2423,2.2415,2.2443,2.2411,2.2424,2.2424,2.2423,2.2499,2.2514,2.2565,2.2473,2.2474,2.2475,0,2.2441,2.2446,2.2484,2.2477,2.2482,2.2499,2.2503,2.2514,2.2512,2.2506,2.2509,2.2491,2.251,2.248,2.2505,2.2483,2.2487,2.2484,2.2485,2.2485,2.2452,2.2498,2.2581,2.2588,2.2486,2.2485,2.2484,0,2.2502,2.2519,2.2543,2.2544,2.2537,2.2549,2.2546,2.2543,2.2548,2.2552,2.2555,2.2561,2.2564,2.2569,2.2553,2.2533,2.2579,2.2549,2.2573,2.2573,2.2583,2.2582,2.2665,2.2589,2.2588,2.2588,2.2588,0,2.2569,2.2593,2.257,2.2585,2.261,2.259,2.2616,2.261,2.2607,2.262,2.2596,2.2608,2.2587,2.2596,2.2584,2.2605,2.2607,2.2601,2.2597,2.2602,2.2603,2.2604,2.2599,2.259,2.259,2.2589,2.2589,0,2.2641,2.2627,2.2651,2.2641,2.264,2.2659,2.265,2.2663,2.2653,2.2669,2.2672,2.2656,2.2666,2.2651,2.2659,2.2651,2.268,2.2671,2.268,2.2677,2.2701,2.2698,2.2786,2.2796,2.2715,2.2716,2.2716,0,2.2684,2.2702,2.2693,2.27,2.2698,2.2709,2.2714,2.2695,2.27,2.2699,2.2711,2.2719,2.2724,2.2741,2.2731,2.2736,2.2727,2.2757,2.2728,2.2731,2.2725,2.2724,2.2724,2.2763,2.2764,2.2765,2.2765,0,2.2761,2.2753,2.276,2.2765,2.2771,2.2774,2.2775,2.2781,2.2761,2.2768,2.2778,2.2782,2.2789,2.2797,2.28,2.2796,2.2777,2.2775,2.278,2.2785,2.2789,2.2785,2.2695,2.2773,2.2772,2.2771,2.2771,2.2771,2.2819,2.2832,2.2828,2.2836,2.2835,2.2836,2.2847,2.2838,2.2845,2.285,2.2838,2.285,2.2846,2.2848,2.2846,2.2855,2.2841,2.285,2.2852,2.2854,2.2857,2.2789,2.2856,2.2855,2.2855,2.2855,2.2855,0,2.2893,2.2888,2.2897,2.2898,2.2904,2.2886,2.2885,2.2892,2.2902,2.29,2.2906,2.2915,2.2922,2.2912,2.2916,2.2925,2.2916,2.2927,2.2925,2.2924,2.287,2.2863,2.2934,2.2934,2.2934,2.2934,2.2934,2.2934,2.2932,2.2953,2.2944,2.2963,2.2958,2.2969,2.297,2.2971,2.2969,2.2981,2.2986,2.2979,2.2973,2.2977,2.2982,2.2978,2.2981,2.2994,2.2988,2.2936,2.2929,2.2921,2.2915,2.2995,2.2995,2.3041,2.3042,2.3042]}]]